[[{"header":{"parameterUnit":"m.s-1","parameterCategory":1,"la1":30.2991,"la2":30.254,"lo1":-89.0895,"lo2":-89.0444,"dy":0.0017,"dx":0.0017,"nx":28,"ny":28,"refTime":"2025-12-15T09:00:00:Z","depth":0,"parameterNumber":2,"parameterNumberName":"U-component_of_WINDS"},"data":[0,0,0,0,0,0,0,0,0,0,0,0,0,0,0,0,0,0,0,0,0,0,0,0,0,0,0,0,0,0,0,0,0,0,0,0,0,0,0,0,0,0,0,0,0,0,0,0,0,0,0,0,0,0,0,0,0,0,-3.0613,-3.0614,0,-3.0736,-3.0738,-3.0739,-3.0663,-3.0659,-3.0656,-3.0652,-3.0784,-3.079,-3.0797,0,0,0,0,0,0,0,0,0,0,0,0,0,-3.0317,-3.0323,-3.0613,-3.0614,-3.0616,-3.0736,-3.0738,-3.0739,-3.0664,-3.0659,-3.0655,-3.0651,-3.0781,-3.0789,-3.0798,0,0,0,0,0,0,0,0,0,0,0,0,0,-3.0444,-3.0325,-3.0613,-3.0593,-3.0592,-3.0736,-3.0738,-3.074,-3.0665,-3.0659,-3.0654,-3.0649,-3.0779,-3.0789,-3.0799,-3.0971,0,0,-3.083,-3.0835,0,0,0,0,0,0,0,0,-3.0436,-3.0454,-3.0594,-3.0594,-3.0594,-3.0678,-3.0681,-3.0817,-3.0666,-3.0637,-3.0652,-3.0646,-3.0753,-3.0765,-3.0801,-3.0977,-3.0982,-3.0831,-3.0837,-3.0842,-3.0845,0,0,0,0,0,0,0,-3.0428,-3.0449,-3.0662,-3.0596,-3.0596,-3.0579,-3.0591,-3.0707,-3.0724,-3.0639,-3.0634,-3.0649,-3.0752,-3.0791,-3.0803,-3.0984,-3.0831,-3.084,-3.0846,-3.085,-3.1309,-3.1315,0,0,0,0,0,0,-3.042,-3.0442,-3.0658,-3.0665,-3.05,-3.0589,-3.0602,-3.0657,-3.0723,-3.0728,-3.0654,-3.0645,-3.0776,-3.0791,-3.0807,-3.1013,-3.0842,-3.0851,-3.0857,-3.1303,-3.131,-3.1317,0,0,0,0,0,0,-3.0414,-3.044,-3.0653,-3.0552,-3.0578,-3.0599,-3.0662,-3.0662,-3.07,-3.0734,-3.0737,-3.069,-3.0772,-3.0793,-3.093,-3.1017,-3.0856,-3.0865,-3.1296,-3.1305,-3.1313,-3.1427,0,0,0,0,0,0,-3.0406,-3.0438,-3.0502,-3.0554,-3.0584,-3.0773,-3.0667,-3.0668,-3.0718,-3.0708,-3.0768,-3.0773,-3.077,-3.0916,-3.0941,-3.1028,-3.0873,-3.1288,-3.13,-3.1311,-3.1415,-3.1438,-3.1458,0,0,0,0,0,-3.0395,-3.053,-3.0506,-3.0532,-3.0664,-3.0778,-3.0795,-3.0787,-3.0725,-3.0791,-3.0812,-3.0771,-3.1003,-3.093,-3.0958,-3.105,-3.1283,-3.1297,-3.131,-3.1406,-3.1434,-3.1458,0,0,0,0,0,0,-3.0489,-3.0537,-3.051,-3.0666,-3.0718,-3.0765,-3.0847,-3.0817,-3.0889,-3.0877,-3.0865,-3.0879,-3.1023,-3.105,-3.0968,-3.122,-3.1134,-3.1153,-3.1197,-3.1224,-3.1245,-3.1236,-3.0882,0,0,0,0,0,-3.0528,-3.0615,-3.0652,-3.0785,-3.0813,-3.0826,-3.0875,-3.0864,-3.0918,-3.0941,-3.0972,-3.1028,-3.1113,-3.117,-3.1251,-3.1419,-3.1431,-3.1496,-3.1517,-3.1534,-3.1552,-3.1644,-3.1673,-3.1361,-3.1361,-3.1361,0,0,-3.0609,-3.0646,-3.0701,-3.0805,-3.0844,-3.0936,-3.0845,-3.0945,-3.1014,-3.0956,-3.1088,-3.1113,-3.1175,-3.1329,-3.1398,-3.1356,-3.1641,-3.1552,-3.1565,-3.1573,-3.1661,-3.169,-3.1717,-3.137,-3.1369,-3.1367,0,0,-3.0804,-3.0839,-3.0955,-3.0996,-3.1056,-3.1064,-3.1092,-3.1143,-3.1157,-3.1289,-3.1248,-3.133,-3.1477,-3.1523,-3.1566,-3.1778,-3.1744,-3.1805,-3.1917,-3.2007,-3.2032,-3.2053,-3.213,-3.2158,-3.1822,-3.1823,-3.1823,0,-3.0897,-3.1032,-3.1018,-3.1122,-3.117,-3.1121,-3.1238,-3.128,-3.1364,-3.1399,-3.135,-3.1534,-3.1572,-3.1736,-3.1788,-3.1824,-3.1857,-3.1798,-3.2029,-3.2051,-3.2071,-3.2144,-3.2173,-3.183,-3.1829,-3.1828,-3.1827,0,-3.1144,-3.1238,-3.1325,-3.1406,-3.1463,-3.1574,-3.1579,-3.1639,-3.1623,-3.1637,-3.1772,-3.1816,-3.1905,-3.1943,-3.1929,-3.2106,-3.2078,-3.2029,-3.1942,-3.2108,-3.2176,-3.2204,-3.184,-3.1837,-3.1835,-3.1833,0,0,-3.1401,-3.1473,-3.1505,-3.1542,-3.1605,-3.1679,-3.1788,-3.1873,-3.1925,-3.1985,-3.2077,-3.2203,-3.2159,-3.2207,-3.2199,-3.2277,-3.2444,-3.2219,-3.222,-3.226,-3.2643,-3.2679,-3.2711,-3.2421,-3.2427,-3.2431,-3.2637,0,-3.16,-3.1788,-3.178,-3.1956,-3.2044,-3.1999,-3.2094,-3.2144,-3.216,-3.2238,-3.2256,-3.2346,-3.228,-3.2309,-3.2385,-3.2408,-3.2521,-3.2393,-3.2508,-3.2513,-3.2494,-3.2747,-3.2785,-3.2978,-3.2664,-3.2669,-3.2672,0,-3.1856,-3.1923,-3.2109,-3.2159,-3.2196,-3.2281,-3.2359,-3.2434,-3.249,-3.2497,-3.2551,-3.253,-3.2642,-3.2552,-3.2707,-3.262,-3.2667,-3.2686,-3.2693,-3.2704,-3.2602,-3.2765,-3.3039,-3.3069,-3.2714,-3.271,-3.2707,0,-3.2026,-3.2163,-3.2291,-3.2324,-3.2386,-3.2448,-3.2477,-3.2528,-3.258,-3.2649,-3.2683,-3.2765,-3.281,-3.2874,-3.2876,-3.281,-3.3034,-3.2944,-3.3043,-3.3044,-3.3093,-3.309,-3.3379,-3.3123,-3.3122,-3.3122,-3.3121,0,-3.2248,-3.2363,-3.2368,-3.2447,-3.2576,-3.2566,-3.2694,-3.2717,-3.2763,-3.2847,-3.2814,-3.2894,-3.2892,-3.2974,-3.2977,-3.3106,-3.3126,-3.3136,-3.3135,-3.3139,-3.3138,-3.3169,-3.3156,-3.3129,-3.3128,-3.3126,-3.3125,0,-3.2459,-3.2467,-3.2604,-3.2651,-3.2666,-3.2759,-3.28,-3.2877,-3.2889,-3.2996,-3.3021,-3.3042,-3.3137,-3.3145,-3.3256,-3.3258,-3.3414,-3.3399,-3.3394,-3.3392,-3.3491,-3.3482,-3.3811,-3.3854,-3.357,-3.3573,-3.3575,0,-3.26,-3.2687,-3.2744,-3.2798,-3.283,-3.2916,-3.2969,-3.2964,-3.302,-3.3092,-3.316,-3.3251,-3.3324,-3.3478,-3.3504,-3.3589,-3.3576,-3.3686,-3.3589,-3.359,-3.3578,-3.3573,-3.3582,-3.3705,-3.3708,-3.371,-3.3712,0,-3.2851,-3.285,-3.2926,-3.3005,-3.3069,-3.3131,-3.3189,-3.3235,-3.3237,-3.3302,-3.3398,-3.3454,-3.3567,-3.3659,-3.3742,-3.3774,-3.3745,-3.3743,-3.377,-3.3775,-3.3769,-3.3774,-3.3446,-3.3735,-3.3733,-3.3731,-3.373,-3.3729,-3.3031,-3.3107,-3.3159,-3.3245,-3.3288,-3.3343,-3.3417,-3.3439,-3.3518,-3.3608,-3.3601,-3.3707,-3.3763,-3.3871,-3.391,-3.3994,-3.3957,-3.3997,-3.4008,-3.4018,-3.4028,-3.3755,-3.4009,-3.4009,-3.4008,-3.4008,-3.4007,0,-3.328,-3.3311,-3.3391,-3.3472,-3.3541,-3.3506,-3.3568,-3.3629,-3.3722,-3.3776,-3.3848,-3.3959,-3.4048,-3.4081,-3.4169,-3.423,-3.4219,-3.4253,-3.4248,-3.4256,-3.4056,-3.4023,-3.4261,-3.426,-3.426,-3.426,-3.426,-3.426,-3.3417,-3.3543,-3.355,-3.3698,-3.3728,-3.3831,-3.387,-3.3921,-3.3964,-3.4089,-3.4162,-3.4183,-3.4229,-3.4319,-3.44,-3.4408,-3.4442,-3.4482,-3.4484,-3.4296,-3.427,-3.4246,-3.4215,-3.449,-3.449,-3.4678,-3.468,-3.4681]},{"header":{"parameterUnit":"m.s-1","parameterCategory":1,"la1":30.2991,"la2":30.254,"lo1":-89.0895,"lo2":-89.0444,"dy":0.0017,"dx":0.0017,"nx":28,"ny":28,"refTime":"2025-12-15T09:00:00:Z","depth":0,"parameterNumber":3,"parameterNumberName":"V-component_of_WINDS"},"data":[0,0,0,0,0,0,0,0,0,0,0,0,0,0,0,0,0,0,0,0,0,0,0,0,0,0,0,0,0,0,0,0,0,0,0,0,0,0,0,0,0,0,0,0,0,0,0,0,0,0,0,0,0,0,0,0,0,0,-2.1244,-2.1243,0,-2.1192,-2.1191,-2.1191,-2.1181,-2.1181,-2.1181,-2.1182,-2.1125,-2.1124,-2.1122,0,0,0,0,0,0,0,0,0,0,0,0,0,-2.1328,-2.1327,-2.1244,-2.1243,-2.1242,-2.1192,-2.1191,-2.119,-2.1181,-2.1181,-2.1182,-2.1182,-2.1126,-2.1124,-2.1122,0,0,0,0,0,0,0,0,0,0,0,0,0,-2.1285,-2.1326,-2.1244,-2.1232,-2.123,-2.1192,-2.1191,-2.119,-2.118,-2.1181,-2.1182,-2.1182,-2.1127,-2.1124,-2.1121,-2.1091,0,0,-2.1113,-2.1111,0,0,0,0,0,0,0,0,-2.1288,-2.1282,-2.1234,-2.1232,-2.123,-2.1193,-2.12,-2.1157,-2.118,-2.1199,-2.1182,-2.1183,-2.1147,-2.1143,-2.1132,-2.1088,-2.1086,-2.1112,-2.1111,-2.1109,-2.1109,0,0,0,0,0,0,0,-2.1291,-2.1285,-2.1223,-2.1233,-2.1231,-2.1226,-2.1221,-2.1192,-2.117,-2.1198,-2.1197,-2.1191,-2.1146,-2.1134,-2.113,-2.1085,-2.1112,-2.111,-2.1108,-2.1107,-2.1009,-2.1008,0,0,0,0,0,0,-2.1297,-2.1287,-2.1225,-2.1222,-2.1261,-2.1224,-2.1218,-2.1205,-2.1171,-2.1166,-2.119,-2.1191,-2.1139,-2.1134,-2.1128,-2.1087,-2.1109,-2.1107,-2.1105,-2.101,-2.1009,-2.1008,0,0,0,0,0,0,-2.1299,-2.1291,-2.1227,-2.1254,-2.1245,-2.1222,-2.1207,-2.1203,-2.1191,-2.1165,-2.1161,-2.1182,-2.1139,-2.1132,-2.1099,-2.1085,-2.1105,-2.1103,-2.1011,-2.101,-2.1008,-2.1007,0,0,0,0,0,0,-2.1301,-2.1292,-2.1282,-2.1254,-2.1244,-2.1201,-2.1206,-2.1202,-2.1187,-2.1186,-2.1157,-2.1152,-2.1139,-2.1104,-2.1097,-2.1082,-2.1101,-2.1012,-2.101,-2.1009,-2.1008,-2.1006,-2.1004,0,0,0,0,0,-2.1304,-2.1284,-2.1282,-2.1274,-2.1231,-2.12,-2.1194,-2.1181,-2.1186,-2.1174,-2.1156,-2.1153,-2.1088,-2.11,-2.1092,-2.1076,-2.1013,-2.1011,-2.1009,-2.1009,-2.1006,-2.1004,0,0,0,0,0,0,-2.1312,-2.1281,-2.1277,-2.1248,-2.1227,-2.1199,-2.1184,-2.1179,-2.1155,-2.1156,-2.1139,-2.1132,-2.1099,-2.1085,-2.1099,-2.1043,-2.105,-2.1047,-2.1053,-2.105,-2.1048,-2.1052,-2.1098,0,0,0,0,0,-2.131,-2.1289,-2.1262,-2.1239,-2.1228,-2.1208,-2.1194,-2.1185,-2.1162,-2.1152,-2.1133,-2.1109,-2.1083,-2.1066,-2.1041,-2.1006,-2.0997,-2.0991,-2.0988,-2.0987,-2.0983,-2.0959,-2.0954,-2.1001,-2.1001,-2.1001,0,0,-2.1306,-2.1286,-2.1274,-2.1239,-2.1222,-2.1198,-2.12,-2.1176,-2.1157,-2.1148,-2.1116,-2.11,-2.1072,-2.1037,-2.1021,-2.1024,-2.0968,-2.0984,-2.0983,-2.098,-2.0956,-2.0952,-2.0948,-2.1,-2.1,-2.1,0,0,-2.1286,-2.1271,-2.1248,-2.1229,-2.1202,-2.1188,-2.1183,-2.1154,-2.1143,-2.111,-2.1102,-2.1078,-2.1035,-2.1014,-2.0998,-2.0965,-2.0959,-2.0957,-2.0945,-2.0921,-2.0918,-2.0914,-2.0899,-2.0894,-2.0954,-2.0954,-2.0954,0,-2.1285,-2.125,-2.1236,-2.1211,-2.1194,-2.1185,-2.1159,-2.1142,-2.1108,-2.1095,-2.1099,-2.1041,-2.1022,-2.098,-2.0972,-2.096,-2.095,-2.096,-2.092,-2.0916,-2.0913,-2.0898,-2.0892,-2.0954,-2.0954,-2.0954,-2.0954,0,-2.1247,-2.1223,-2.1207,-2.1174,-2.1155,-2.113,-2.111,-2.1092,-2.1084,-2.1068,-2.1032,-2.1008,-2.0976,-2.0965,-2.0958,-2.092,-2.0922,-2.0924,-2.0931,-2.0908,-2.0893,-2.0888,-2.0953,-2.0953,-2.0953,-2.0953,0,0,-2.1233,-2.119,-2.1184,-2.1167,-2.1135,-2.1114,-2.1086,-2.1055,-2.1038,-2.1014,-2.0988,-2.0949,-2.0948,-2.093,-2.0919,-2.0899,-2.0869,-2.0901,-2.09,-2.0893,-2.0822,-2.0819,-2.0813,-2.0865,-2.0864,-2.0864,-2.0823,0,-2.1208,-2.116,-2.1145,-2.1103,-2.1078,-2.1066,-2.1041,-2.1017,-2.1001,-2.0975,-2.0956,-2.0928,-2.0931,-2.0919,-2.0898,-2.0877,-2.0854,-2.088,-2.0838,-2.0836,-2.0843,-2.0806,-2.0805,-2.0768,-2.0817,-2.0816,-2.0816,0,-2.1173,-2.1147,-2.1103,-2.1069,-2.1058,-2.1037,-2.1004,-2.098,-2.0951,-2.094,-2.0917,-2.0906,-2.0873,-2.0883,-2.0835,-2.0853,-2.0834,-2.082,-2.0818,-2.0812,-2.0824,-2.0797,-2.0756,-2.075,-2.0807,-2.0808,-2.0809,0,-2.1163,-2.1117,-2.1084,-2.107,-2.1031,-2.1015,-2.0998,-2.0969,-2.0949,-2.092,-2.0906,-2.0873,-2.0855,-2.0828,-2.0807,-2.0817,-2.0759,-2.0768,-2.0746,-2.0747,-2.0734,-2.0735,-2.0687,-2.0726,-2.0726,-2.0726,-2.0726,0,-2.1136,-2.1109,-2.1079,-2.1058,-2.1025,-2.1006,-2.0974,-2.0956,-2.0929,-2.0902,-2.089,-2.0865,-2.084,-2.081,-2.0794,-2.0753,-2.0746,-2.0734,-2.0729,-2.0734,-2.0735,-2.072,-2.0721,-2.0725,-2.0725,-2.0725,-2.0726,0,-2.112,-2.11,-2.1062,-2.1027,-2.1017,-2.0994,-2.0962,-2.094,-2.0922,-2.0887,-2.0878,-2.0849,-2.0812,-2.0789,-2.0744,-2.0732,-2.0687,-2.0685,-2.0697,-2.0694,-2.0672,-2.0673,-2.0612,-2.0601,-2.065,-2.0649,-2.0649,0,-2.1104,-2.1082,-2.1044,-2.1025,-2.1007,-2.0978,-2.0957,-2.0935,-2.0914,-2.0875,-2.0856,-2.0819,-2.0788,-2.073,-2.0703,-2.0666,-2.0661,-2.0642,-2.0656,-2.0659,-2.0656,-2.0657,-2.0653,-2.0639,-2.0639,-2.0639,-2.0638,0,-2.1075,-2.1065,-2.1036,-2.1002,-2.0977,-2.0949,-2.0921,-2.0906,-2.0879,-2.0854,-2.0817,-2.0793,-2.0744,-2.0706,-2.0665,-2.0645,-2.0635,-2.0634,-2.0626,-2.063,-2.0636,-2.0628,-2.0688,-2.0636,-2.0636,-2.0636,-2.0636,-2.0636,-2.1057,-2.1035,-2.1004,-2.097,-2.0946,-2.0919,-2.0895,-2.0872,-2.0841,-2.08,-2.0788,-2.0748,-2.0713,-2.0658,-2.0636,-2.0602,-2.0604,-2.0594,-2.0591,-2.0588,-2.0586,-2.0643,-2.0595,-2.0595,-2.0595,-2.0595,-2.0595,0,-2.1025,-2.1003,-2.0973,-2.0933,-2.0905,-2.0899,-2.0866,-2.0843,-2.0808,-2.0777,-2.0745,-2.0699,-2.066,-2.0629,-2.0588,-2.0566,-2.056,-2.0556,-2.0556,-2.055,-2.0588,-2.0597,-2.0561,-2.0561,-2.0561,-2.0561,-2.0561,-2.0561,-2.1006,-2.0968,-2.0952,-2.09,-2.0877,-2.0838,-2.0819,-2.0792,-2.0766,-2.0716,-2.0683,-2.0663,-2.063,-2.0585,-2.0548,-2.0539,-2.0523,-2.0519,-2.0509,-2.0545,-2.0548,-2.0552,-2.056,-2.0516,-2.0516,-2.0473,-2.0473,-2.0472]}]]